GW4049 Weather Reports


time (UTC)temp
C
wind
direction
speed
KPH
gust
KPH
rain 1hr
cm
rain 24hr
cm
rain mn
cm
humidity
%
barometer
mb
20260906162245 20 276 0.0 6.4 0.00 0.00 0.00 48 1033.9
20260906161740 20 55 3.2 4.8 0.00 0.00 0.00 47 1033.7
20260906161239 21 348 1.6 3.2 0.00 0.00 0.00 46 1033.9
20260906160738 20 60 1.6 14.5 0.00 0.00 0.00 50 1033.6
20260906160238 20 4 1.6 6.4 0.00 0.00 0.00 49 1033.6
20260906155735 20 5 6.4 9.7 0.00 0.00 0.00 50 1033.7
20260906155230 20 35 3.2 4.8 0.00 0.00 0.00 49 1033.9
20260906154726 20 198 3.2 9.7 0.00 0.00 0.00 50 1033.5
20260906154221 20 322 4.8 6.4 0.00 0.00 0.00 49 1033.6
20260906153719 20 175 6.4 6.4 0.00 0.00 0.00 49 1033.6
20260906153213 20 303 1.6 1.6 0.00 0.00 0.00 48 1033.7
20260906152709 19 181 1.6 3.2 0.00 0.00 0.00 49 1033.7
20260906152203 19 269 3.2 3.2 0.00 0.00 0.00 49 1033.6
20260906151658 19 334 4.8 4.8 0.00 0.00 0.00 49 1033.7
20260906151153 19 311 3.2 4.8 0.00 0.00 0.00 49 1033.3
20260906150648 19 268 3.2 4.8 0.00 0.00 0.00 48 1033.5
20260906150143 18 270 0.0 4.8 0.00 0.00 0.00 49 1033.6
20260906145637 19 319 3.2 6.4 0.00 0.00 0.00 47 1033.9
20260906145131 19 267 1.6 3.2 0.00 0.00 0.00 48 1033.7
20260906144626 18 270 1.6 3.2 0.00 0.00 0.00 48 1033.5
20260906144121 18 284 0.0 1.6 0.00 0.00 0.00 47 1033.6
20260906143620 18 263 1.6 3.2 0.00 0.00 0.00 48 1033.6
20260906143118 18 264 0.0 0.0 0.00 0.00 0.00 47 1033.6
20260906142617 17 267 0.0 3.2 0.00 0.00 0.00 48 1033.5
20260906142112 18 277 0.0 1.6 0.00 0.00 0.00 47 1034.0
20260906141611 19 270 0.0 0.0 0.00 0.00 0.00 47 1033.5
20260906141107 18 262 0.0 0.0 0.00 0.00 0.00 48 1033.5
20260906140605 18 282 0.0 0.0 0.00 0.00 0.00 49 1033.5
20260906140101 17 299 1.6 3.2 0.00 0.00 0.00 50 1033.3
20260906135557 16 242 1.6 1.6 0.00 0.00 0.00 59 1033.3
20260906135053 16 250 0.0 1.6 0.00 0.00 0.00 61 1033.6
20260906134549 16 250 1.6 1.6 0.00 0.00 0.00 61 1033.2
20260906134044 15 246 0.0 3.2 0.00 0.00 0.00 58 1033.3
20260906133539 15 222 3.2 3.2 0.00 0.00 0.00 60 1033.2
20260906133035 14 236 1.6 3.2 0.00 0.00 0.00 61 1033.3
20260906132529 13 220 3.2 3.2 0.00 0.00 0.00 62 1033.5
20260906132025 13 223 3.2 3.2 0.00 0.00 0.00 63 1033.2
20260906131520 13 223 3.2 3.2 0.00 0.00 0.00 63 1033.1
20260906131016 13 213 3.2 4.8 0.00 0.00 0.00 63 1032.9
20260906130515 12 215 3.2 4.8 0.00 0.00 0.00 63 1033.1
20260906130010 12 207 4.8 4.8 0.00 0.00 0.00 64 1033.1
20260906125508 12 208 4.8 4.8 0.00 0.00 0.00 65 1032.9
20260906125007 12 205 4.8 4.8 0.00 0.00 0.00 65 1033.1
20260906124503 12 200 4.8 4.8 0.00 0.00 0.00 63 1032.9
20260906123957 12 210 4.8 4.8 0.00 0.00 0.00 65 1032.9
20260906123451 12 205 4.8 4.8 0.00 0.00 0.00 63 1032.8
20260906122950 12 209 4.8 4.8 0.00 0.00 0.00 64 1032.8
20260906122445 12 208 4.8 4.8 0.00 0.00 0.00 64 1032.8
20260906121942 12 208 4.8 4.8 0.00 0.00 0.00 64 1032.9
20260906121437 12 205 4.8 4.8 0.00 0.00 0.00 63 1032.8
20260906120934 12 209 4.8 4.8 0.00 0.00 0.00 62 1032.8
20260906120429 12 206 4.8 4.8 0.00 0.00 0.00 63 1032.9
20260906115925 12 210 4.8 4.8 0.00 0.00 0.00 63 1032.8
20260906115420 12 207 4.8 4.8 0.00 0.00 0.00 62 1032.9
20260906114915 12 209 4.8 4.8 0.00 0.00 0.00 62 1032.8
20260906114410 12 208 4.8 6.4 0.00 0.00 0.00 62 1032.9
20260906113905 12 204 4.8 4.8 0.00 0.00 0.00 63 1032.9
20260906113403 12 212 3.2 4.8 0.00 0.00 0.00 64 1032.9
20260906112859 12 206 4.8 4.8 0.00 0.00 0.00 64 1033.1
20260906112355 12 204 4.8 4.8 0.00 0.00 0.00 65 1032.7
20260906111850 12 206 4.8 4.8 0.00 0.00 0.00 64 1032.8
20260906111349 12 208 4.8 4.8 0.00 0.00 0.00 64 1032.7
20260906110844 12 202 4.8 4.8 0.00 0.00 0.00 64 1032.7
20260906110340 12 202 4.8 4.8 0.00 0.00 0.00 64 1032.5
20260906105838 12 203 4.8 4.8 0.00 0.00 0.00 64 1032.5
20260906105335 12 203 4.8 4.8 0.00 0.00 0.00 65 1032.8
20260906104831 12 204 4.8 4.8 0.00 0.00 0.00 64 1032.7
20260906104329 12 204 4.8 4.8 0.00 0.00 0.00 63 1032.7
20260906103828 12 204 4.8 4.8 0.00 0.00 0.00 64 1032.5
20260906103326 12 203 4.8 4.8 0.00 0.00 0.00 65 1032.7
20260906102822 12 199 4.8 4.8 0.00 0.00 0.00 64 1032.8
20260906102321 12 204 4.8 4.8 0.00 0.00 0.00 66 1032.7
20260906101817 12 205 4.8 4.8 0.00 0.00 0.00 65 1032.7
20260906101312 12 204 4.8 4.8 0.00 0.00 0.00 66 1032.9
20260906100808 12 201 4.8 4.8 0.00 0.00 0.00 65 1032.8
20260906100306 12 205 4.8 4.8 0.00 0.00 0.00 64 1032.8
20260906095802 12 207 4.8 4.8 0.00 0.00 0.00 64 1032.8
20260906095257 12 211 4.8 4.8 0.00 0.00 0.00 65 1032.8
20260906094750 12 206 4.8 4.8 0.00 0.00 0.00 64 1032.8
20260906094245 12 201 4.8 4.8 0.00 0.00 0.00 64 1032.8
20260906093741 12 204 4.8 4.8 0.00 0.00 0.00 64 1032.9
20260906093237 12 202 4.8 4.8 0.00 0.00 0.00 65 1032.9
20260906092732 12 205 4.8 4.8 0.00 0.00 0.00 64 1033.1
20260906092226 12 201 4.8 4.8 0.00 0.00 0.00 65 1032.8
20260906091722 12 203 4.8 4.8 0.00 0.00 0.00 65 1033.1
20260906091213 12 208 4.8 4.8 0.00 0.00 0.00 64 1033.2
20260906090709 12 207 4.8 4.8 0.00 0.00 0.00 64 1032.9
20260906090208 13 203 4.8 6.4 0.00 0.00 0.00 64 1033.1
20260906085707 12 207 6.4 6.4 0.00 0.00 0.00 64 1032.9
20260906085206 12 202 6.4 6.4 0.00 0.00 0.00 64 1032.7
20260906084701 13 197 4.8 6.4 0.00 0.00 0.00 65 1032.9
20260906084200 13 199 4.8 6.4 0.00 0.00 0.00 62 1032.7
20260906083655 13 206 6.4 6.4 0.00 0.00 0.00 61 1032.9
20260906083151 13 201 6.4 9.7 0.00 0.00 0.00 59 1032.8
20260906082646 13 201 4.8 6.4 0.00 0.00 0.00 58 1032.9
20260906082141 14 206 6.4 6.4 0.00 0.00 0.00 58 1032.9
20260906081637 13 204 6.4 6.4 0.00 0.00 0.00 60 1032.9
20260906081132 13 221 6.4 6.4 0.00 0.00 0.00 60 1032.9
20260906080629 13 234 6.4 6.4 0.00 0.00 0.00 63 1033.1
20260906080124 14 209 4.8 6.4 0.00 0.00 0.00 60 1033.1
20260906075618 13 198 6.4 6.4 0.00 0.00 0.00 60 1033.3
20260906075113 13 211 6.4 9.7 0.00 0.00 0.00 61 1033.2
20260906074609 13 201 6.4 6.4 0.00 0.00 0.00 59 1033.2
20260906074108 13 218 6.4 6.4 0.00 0.00 0.00 62 1033.1
20260906073608 13 209 4.8 6.4 0.00 0.00 0.00 64 1033.1
20260906073104 13 214 3.2 4.8 0.00 0.00 0.00 63 1033.1
20260906072558 13 218 3.2 4.8 0.00 0.00 0.00 61 1033.3
20260906072054 13 206 6.4 6.4 0.00 0.00 0.00 60 1033.2
20260906071550 13 211 4.8 6.4 0.00 0.00 0.00 61 1033.2
20260906071040 14 218 4.8 6.4 0.00 0.00 0.00 60 1033.2
20260906070536 13 213 4.8 6.4 0.00 0.00 0.00 64 1033.2
20260906070032 13 205 4.8 6.4 0.00 0.00 0.00 65 1033.1
20260906065531 13 205 6.4 6.4 0.00 0.00 0.00 66 1033.2
20260906065027 13 207 4.8 4.8 0.00 0.00 0.00 66 1033.1
20260906064522 13 212 4.8 4.8 0.00 0.00 0.00 64 1033.1
20260906064017 13 201 4.8 4.8 0.00 0.00 0.00 67 1033.5
20260906063513 12 207 4.8 4.8 0.00 0.00 0.00 69 1033.6
20260906063008 12 210 6.4 6.4 0.00 0.00 0.00 70 1033.2
20260906062503 12 200 4.8 6.4 0.00 0.00 0.00 70 1033.7
20260906061957 11 209 4.8 6.4 0.00 0.00 0.00 75 1033.5
20260906061454 11 202 4.8 6.4 0.00 0.00 0.00 78 1033.3
20260906060953 11 207 6.4 6.4 0.00 0.00 0.00 79 1033.7
20260906060450 11 214 4.8 4.8 0.00 0.00 0.00 82 1033.7
20260906055946 10 212 4.8 4.8 0.00 0.05 0.05 82 1033.7
20260906055442 10 209 4.8 4.8 0.00 0.05 0.05 84 1033.5
20260906054937 10 203 4.8 4.8 0.00 0.05 0.05 84 1033.7
20260906054432 10 204 4.8 4.8 0.00 0.05 0.05 85 1033.7
20260906053928 10 206 4.8 4.8 0.00 0.05 0.05 86 1033.9
20260906053424 10 216 3.2 4.8 0.00 0.05 0.05 87 1034.1
20260906052919 11 220 3.2 3.2 0.00 0.05 0.05 88 1034.1
20260906052415 10 209 4.8 4.8 0.00 0.05 0.05 88 1034.0
20260906051912 11 203 4.8 4.8 0.00 0.05 0.05 89 1033.9
20260906051412 11 213 4.8 6.4 0.00 0.05 0.05 90 1034.4
20260906050908 11 215 3.2 4.8 0.00 0.05 0.05 91 1034.1
20260906050403 11 217 3.2 4.8 0.00 0.05 0.05 92 1034.1
20260906045902 11 233 3.2 4.8 0.00 0.05 0.05 93 1033.9
20260906045400 11 238 1.6 3.2 0.00 0.05 0.05 92 1034.4
20260906044857 11 218 4.8 4.8 0.00 0.05 0.05 89 1034.1
20260906044357 12 222 3.2 4.8 0.13 0.05 0.05 86 1034.3
20260906043853 13 251 4.8 11.3 0.13 0.05 0.05 79 1034.3
20260906043349 15 193 6.4 12.9 0.00 0.03 0.03 69 1034.4
20260906042844 14 234 8.0 14.5 0.00 0.03 0.03 66 1034.3
20260906042342 13 169 6.4 17.7 0.00 0.03 0.03 67 1034.3
20260906041838 13 187 12.9 20.9 0.18 0.03 0.03 73 1034.0
20260906041334 13 235 9.7 12.9 0.18 0.03 0.03 77 1034.4
20260906040834 15 205 14.5 16.1 0.00 0.00 0.00 71 1033.9
20260906040329 16 211 8.0 16.1 0.00 0.00 0.00 54 1034.1
20260906035824 16 220 3.2 12.9 0.00 0.00 0.00 54 1033.7
20260906035319 17 248 6.4 14.5 0.00 0.00 0.00 52 1033.6
20260906034815 17 218 6.4 14.5 0.00 0.00 0.00 49 1033.6
20260906034314 17 262 9.7 14.5 0.00 0.00 0.00 49 1033.7
20260906033811 17 228 4.8 9.7 0.00 0.00 0.00 47 1033.3
20260906033309 17 251 0.0 0.0 0.00 0.00 0.00 48 1033.6
20260906032806 17 248 0.0 0.0 0.00 0.00 0.00 48 1033.7
20260906032305 17 218 3.2 4.8 0.00 0.00 0.00 48 1033.5
20260906031757 16 223 3.2 3.2 0.00 0.00 0.00 50 1033.6
20260906031253 16 216 4.8 4.8 0.00 0.00 0.00 50 1033.5
20260906030752 15 219 3.2 3.2 0.00 0.00 0.00 59 1033.3
20260906030248 16 236 1.6 3.2 0.00 0.00 0.00 55 1033.2
20260906025747 17 238 1.6 4.8 0.00 0.00 0.00 54 1032.9
20260906025241 17 218 4.8 6.4 0.00 0.00 0.00 47 1033.2
20260906024740 17 237 3.2 4.8 0.00 0.00 0.00 49 1033.2
20260906024239 17 234 6.4 6.4 0.00 0.00 0.00 49 1033.1
20260906023735 16 212 6.4 6.4 0.00 0.00 0.00 49 1033.1
20260906023230 16 218 3.2 3.2 0.00 0.00 0.00 51 1032.9
20260906022726 15 194 4.8 4.8 0.00 0.00 0.00 52 1032.8
20260906022216 16 248 1.6 1.6 0.00 0.00 0.00 52 1032.8
20260906021711 16 245 1.6 3.2 0.00 0.00 0.00 51 1032.5
20260906021209 16 236 1.6 3.2 0.00 0.00 0.00 51 1032.4
20260906020705 16 235 3.2 3.2 0.00 0.00 0.00 49 1032.7
20260906020159 17 267 0.0 1.6 0.00 0.00 0.00 46 1032.7
20260906015653 17 248 0.0 0.0 0.00 0.00 0.00 46 1032.8
20260906015152 17 280 1.6 3.2 0.00 0.00 0.00 47 1032.7
20260906014646 17 238 1.6 3.2 0.00 0.00 0.00 48 1032.8
20260906014142 17 272 1.6 3.2 0.00 0.00 0.00 46 1032.8
20260906013639 18 246 3.2 3.2 0.00 0.00 0.00 46 1032.7
20260906013134 18 263 1.6 4.8 0.00 0.00 0.00 46 1032.5
20260906012634 18 298 3.2 11.3 0.00 0.00 0.00 45 1032.5
20260906012128 18 303 1.6 4.8 0.00 0.00 0.00 45 1032.7
20260906011624 18 263 3.2 4.8 0.00 0.00 0.00 44 1032.9
20260906011119 18 317 4.8 12.9 0.00 0.00 0.00 43 1032.9
20260906010614 18 290 4.8 4.8 0.00 0.00 0.00 43 1032.5
20260906010110 19 279 4.8 9.7 0.00 0.00 0.00 42 1032.8
20260906005609 20 254 1.6 9.7 0.00 0.00 0.00 42 1032.7
20260906005108 20 288 1.6 3.2 0.00 0.00 0.00 41 1032.5
20260906004603 20 265 0.0 3.2 0.00 0.00 0.00 40 1032.4
20260906004057 20 354 1.6 6.4 0.00 0.00 0.00 41 1032.7
20260906003553 20 256 3.2 4.8 0.00 0.00 0.00 39 1032.7
20260906003048 20 290 1.6 4.8 0.00 0.00 0.00 39 1032.5
20260906002543 20 277 1.6 3.2 0.00 0.00 0.00 39 1032.4
20260906002037 20 265 0.0 0.0 0.00 0.00 0.00 39 1032.5
20260906001533 20 259 1.6 3.2 0.00 0.00 0.00 38 1032.7
20260906001027 20 250 0.0 3.2 0.00 0.00 0.00 39 1032.5
20260906000523 21 247 0.0 0.0 0.00 0.00 0.00 40 1032.4
20260906000018 20 265 0.0 3.2 0.00 0.00 0.00 39 1032.7
20260905235511 21 218 0.0 1.6 0.00 0.00 0.00 38 1032.4
20260905235006 21 328 6.4 9.7 0.00 0.00 0.00 38 1032.5
20260905234502 21 327 4.8 4.8 0.00 0.00 0.00 37 1032.5
20260905233956 22 271 4.8 11.3 0.00 0.00 0.00 37 1032.4
20260905233452 22 327 6.4 6.4 0.00 0.00 0.00 37 1032.1
20260905232950 22 358 6.4 9.7 0.00 0.00 0.00 36 1032.5
20260905232447 22 285 3.2 6.4 0.00 0.00 0.00 37 1032.1
20260905231942 22 358 1.6 11.3 0.00 0.00 0.00 36 1032.4
20260905231438 22 282 0.0 1.6 0.00 0.00 0.00 35 1032.4
20260905230934 22 238 6.4 9.7 0.00 0.00 0.00 36 1032.3
20260905230427 22 320 0.0 12.9 0.00 0.00 0.00 38 1032.4
20260905225925 22 348 6.4 12.9 0.00 0.00 0.00 36 1032.3
20260905225420 22 19 6.4 12.9 0.00 0.00 0.00 36 1032.1
20260905224915 23 46 4.8 11.3 0.00 0.00 0.00 35 1032.3
20260905224411 22 56 9.7 17.7 0.00 0.00 0.00 35 1032.4
20260905223905 23 117 4.8 9.7 0.00 0.00 0.00 34 1032.3
20260905223403 22 18 12.9 17.7 0.00 0.00 0.00 35 1032.3
20260905222903 22 27 8.0 11.3 0.00 0.00 0.00 35 1032.4
20260905222402 22 274 0.0 4.8 0.00 0.00 0.00 35 1032.4
20260905221858 22 262 0.0 6.4 0.00 0.00 0.00 35 1032.3
20260905221355 23 70 1.6 6.4 0.00 0.00 0.00 34 1032.4
20260905220850 22 217 1.6 3.2 0.00 0.00 0.00 36 1032.4
20260905220347 22 320 1.6 4.8 0.00 0.00 0.00 35 1032.4
20260905215846 22 343 6.4 11.3 0.00 0.00 0.00 36 1032.5
20260905215341 22 4 6.4 12.9 0.00 0.00 0.00 36 1032.5
20260905214832 22 358 8.0 14.5 0.00 0.00 0.00 36 1032.5
20260905214327 22 359 4.8 6.4 0.00 0.00 0.00 36 1032.8
20260905213822 22 275 1.6 4.8 0.00 0.00 0.00 35 1032.5
20260905213318 22 299 3.2 9.7 0.00 0.00 0.00 36 1032.5
20260905212813 22 261 3.2 4.8 0.00 0.00 0.00 36 1032.8
20260905212312 22 223 1.6 16.1 0.00 0.00 0.00 35 1032.8
20260905211807 22 104 4.8 11.3 0.00 0.00 0.00 35 1032.8
20260905211302 22 9 3.2 11.3 0.00 0.00 0.00 36 1032.9
20260905210759 21 317 6.4 14.5 0.00 0.00 0.00 37 1033.1
20260905210258 21 17 6.4 11.3 0.00 0.00 0.00 37 1033.3
20260905205757 21 55 12.9 14.5 0.00 0.00 0.00 37 1033.2
20260905205252 20 349 4.8 9.7 0.00 0.00 0.00 37 1033.6
20260905204751 21 351 3.2 9.7 0.00 0.00 0.00 38 1033.2
20260905204248 21 273 0.0 9.7 0.00 0.00 0.00 38 1033.2
20260905203747 21 280 3.2 9.7 0.00 0.00 0.00 37 1033.2
20260905203242 21 318 9.7 12.9 0.00 0.00 0.00 36 1033.2
20260905202738 22 15 9.7 12.9 0.00 0.00 0.00 38 1033.3
20260905202238 21 16 3.2 11.3 0.00 0.00 0.00 38 1033.2
20260905201733 21 99 14.5 17.7 0.00 0.00 0.00 36 1033.5
20260905201228 20 210 3.2 3.2 0.00 0.00 0.00 40 1033.2
20260905200723 20 5 3.2 16.1 0.00 0.00 0.00 39 1033.2
20260905200219 20 345 6.4 16.1 0.00 0.00 0.00 39 1033.2
20260905195717 20 300 8.0 14.5 0.00 0.00 0.00 39 1033.3
20260905195213 20 292 11.3 14.5 0.00 0.00 0.00 39 1033.3
20260905194708 20 37 11.3 12.9 0.00 0.00 0.00 39 1033.5
20260905194207 21 272 1.6 9.7 0.00 0.00 0.00 39 1033.5
20260905193701 21 286 6.4 11.3 0.00 0.00 0.00 38 1033.3
20260905193156 21 84 6.4 16.1 0.00 0.00 0.00 37 1033.6
20260905192652 23 119 3.2 11.3 0.00 0.00 0.00 36 1033.3
20260905192149 22 107 4.8 11.3 0.00 0.00 0.00 35 1033.3
20260905191648 21 323 1.6 4.8 0.00 0.00 0.00 37 1033.5
20260905191146 22 212 1.6 6.4 0.00 0.00 0.00 37 1033.6
20260905190644 21 10 9.7 12.9 0.00 0.00 0.00 39 1033.6
20260905190144 21 316 4.8 4.8 0.00 0.00 0.00 37 1033.5
20260905185637 22 25 17.7 20.9 0.00 0.00 0.00 37 1033.5
20260905185132 22 359 6.4 6.4 0.00 0.00 0.00 36 1033.6
20260905184632 22 84 3.2 17.7 0.00 0.00 0.00 34 1033.6
20260905184131 22 71 8.0 14.5 0.00 0.00 0.00 34 1033.5
20260905183630 21 0 0.0 11.3 0.00 0.00 0.00 37 1033.6
20260905183126 21 307 4.8 12.9 0.00 0.00 0.00 37 1033.7
20260905182625 21 304 3.2 12.9 0.00 0.00 0.00 36 1033.5
20260905182119 22 115 4.8 6.4 0.00 0.00 0.00 35 1033.7
20260905181614 22 315 4.8 6.4 0.00 0.00 0.00 35 1033.6
20260905181113 23 275 3.2 4.8 0.00 0.00 0.00 35 1033.6
20260905180609 22 120 12.9 17.7 0.00 0.00 0.00 36 1033.7
20260905180104 22 42 6.4 11.3 0.00 0.00 0.00 37 1033.7
20260905175603 22 162 8.0 14.5 0.00 0.00 0.00 36 1033.9
20260905175058 23 51 12.9 17.7 0.00 0.00 0.00 34 1033.6
20260905174554 22 96 12.9 16.1 0.00 0.00 0.00 36 1033.9
20260905174049 22 297 6.4 16.1 0.00 0.00 0.00 36 1033.9
20260905173546 23 90 9.7 12.9 0.00 0.00 0.00 36 1033.9
20260905173041 22 279 3.2 9.7 0.00 0.00 0.00 35 1033.7
20260905172539 23 71 3.2 11.3 0.00 0.00 0.00 35 1033.9
20260905172035 23 150 12.9 14.5 0.00 0.00 0.00 34 1033.9
20260905171531 23 314 6.4 11.3 0.00 0.00 0.00 34 1033.6
20260905171027 23 252 0.0 1.6 0.00 0.00 0.00 33 1033.9
20260905170523 22 282 3.2 6.4 0.00 0.00 0.00 35 1033.6
20260905170018 21 8 3.2 6.4 0.00 0.00 0.00 36 1033.6
20260905165513 21 305 3.2 3.2 0.00 0.00 0.00 35 1033.9
20260905165008 20 271 3.2 6.4 0.00 0.00 0.00 36 1033.6
20260905164502 20 265 1.6 4.8 0.00 0.00 0.00 36 1034.0
20260905163956 20 270 3.2 6.4 0.00 0.00 0.00 37 1033.7
20260905163453 21 338 1.6 6.4 0.00 0.00 0.00 38 1033.5
20260905162949 21 276 3.2 6.4 0.00 0.00 0.00 36 1033.9
20260905162444 22 88 8.0 16.1 0.00 0.00 0.00 35 1033.7